Kalamazoo, MI

7:19 AM EDT on October 21, 2017 (GMT -0400)
Kalamazoo-Battle Creek International

Weather History for KAZO - December, 2008

Change the Weather History Date:

Sunday, December 7, 2008

  Actual Average Record
Temperature  
Mean Temperature 19 °F 31 °F  
Max Temperature 21 °F 37 °F 67 °F (1951)
Min Temperature 17 °F 25 °F 3 °F (1972)
Degree Days  
Heating Degree Days 46 34  
Month to date heating degree days 227  
Since 1 July heating degree days 1554  
Cooling Degree Days 0 0  
Month to date cooling degree days 0  
Year to date cooling degree days 675  
Moisture  
Dew Point 12 °F    
Average Humidity 71    
Maximum Humidity 81    
Minimum Humidity 53    
Precipitation  
Precipitation 0.00 in 0.08 in 0.98 in (1966)
Month to date precipitation 0.57  
Year to date precipitation 34.33  
Snow  
Snow 0.00 in - - ()
Snow Depth 7.00 in    
Sea Level Pressure  
Sea Level Pressure 30.20 in    
Wind  
Wind Speed 9 mph (SSW)    
Max Wind Speed 15 mph    
Max Gust Speed -    
Visibility 7 miles    
Events Snow    
T = Trace of Precipitation, MM = Missing Value Source: NWS Daily Summary

Daily Weather History Graph

Daily Weather History Graph

Search for Another Location

Airport or City:

Trip Planner

Search our weather history database for the weather conditions in past years. The results will help you decide how hot, cold, wet, or windy it might be!

Date:

Astronomy

Dec. 07, 2008 Rise Set
Actual Time 7:57 AM EST 5:09 PM EST
Civil Twilight 7:26 AM EST 5:41 PM EST
Nautical Twilight 6:51 AM EST 6:16 PM EST
Astronomical Twilight 6:17 AM EST 6:50 PM EST
Moon 1:33 PM EST (12/7) 1:54 AM EST (12/7)
Length of Visible Light 10h 15m
Length of Day
9h 12m
Waxing Gibbous, 69% of the Moon is Illuminated
Dec 7
Waxing Gibbous
Dec 12
Full
Dec 19
Last Quarter
Dec 27
New
Jan 4
First Quarter

Hourly Weather History & Observations

Time (EST) Temp. Windchill Dew Point Humidity Pressure Visibility Wind Dir Wind Speed Gust Speed Precip Events Conditions
12:53 AM 19.9 °F 6.2 °F 12.0 °F 71% 30.03 in 9.0 mi NW 15.0 mph - 0.00 in   Overcast
1:53 AM 18.0 °F 6.1 °F 10.9 °F 74% 30.05 in 10.0 mi NW 10.4 mph - 0.00 in   Overcast
2:53 AM 17.1 °F 5.8 °F 9.0 °F 71% 30.08 in 10.0 mi NW 9.2 mph - N/A   Mostly Cloudy
3:53 AM 18.0 °F 4.2 °F 8.1 °F 65% 30.10 in 10.0 mi NNW 13.8 mph - N/A   Overcast
4:53 AM 19.0 °F 7.5 °F 9.0 °F 65% 30.13 in 10.0 mi NW 10.4 mph - N/A   Overcast
5:53 AM 18.0 °F 7.7 °F 10.0 °F 71% 30.16 in 10.0 mi WNW 8.1 mph - 0.00 in   Overcast
6:53 AM 18.0 °F 6.9 °F 10.0 °F 71% 30.19 in 10.0 mi NNW 9.2 mph - N/A   Overcast
7:53 AM 17.1 °F 8.7 °F 10.0 °F 74% 30.23 in 10.0 mi WNW 5.8 mph - N/A   Mostly Cloudy
8:53 AM 17.1 °F 10.0 °F 10.0 °F 74% 30.24 in 10.0 mi WNW 4.6 mph - N/A   Mostly Cloudy
9:53 AM 18.0 °F 9.8 °F 7.0 °F 62% 30.27 in 10.0 mi North 5.8 mph - N/A   Mostly Cloudy
10:53 AM 21.0 °F 12.4 °F 7.0 °F 55% 30.27 in 10.0 mi NNW 6.9 mph - N/A   Mostly Cloudy
11:53 AM 21.9 °F - 7.0 °F 53% 30.27 in 10.0 mi Calm Calm - N/A   Mostly Cloudy
12:53 PM 21.9 °F - 7.0 °F 53% 30.26 in 10.0 mi Calm Calm - N/A   Mostly Cloudy
1:53 PM 21.9 °F 14.5 °F 9.0 °F 58% 30.26 in 10.0 mi SW 5.8 mph - N/A   Overcast
2:53 PM 21.9 °F 15.7 °F 12.9 °F 68% 30.26 in 8.0 mi SSW 4.6 mph - 0.00 in Snow Light Snow
3:53 PM 21.9 °F 15.7 °F 12.9 °F 68% 30.25 in 10.0 mi South 4.6 mph - 0.00 in   Overcast
4:53 PM 21.9 °F 15.7 °F 12.9 °F 68% 30.25 in 10.0 mi South 4.6 mph - N/A   Mostly Cloudy
5:53 PM 21.9 °F 13.4 °F 14.0 °F 72% 30.25 in 10.0 mi South 6.9 mph - N/A   Mostly Cloudy
6:45 PM 21.2 °F 14.9 °F 15.8 °F 80% 30.20 in 2.5 mi South 4.6 mph - 0.00 in Snow Light Snow
6:53 PM 21.0 °F 14.6 °F 15.1 °F 78% 30.25 in 2.0 mi South 4.6 mph - 0.00 in Snow Light Snow
7:08 PM 21.2 °F 10.9 °F 15.8 °F 80% 30.21 in 5.0 mi South 9.2 mph - 0.00 in Snow Light Snow
7:46 PM 21.2 °F 10.1 °F 12.2 °F 68% 30.19 in 10.0 mi South 10.4 mph - 0.00 in   Overcast
7:53 PM 21.0 °F 9.3 °F 12.9 °F 71% 30.24 in 9.0 mi South 11.5 mph - 0.00 in   Overcast
8:00 PM 19.4 °F 6.6 °F 12.2 °F 74% 30.19 in 4.0 mi South 12.7 mph - 0.00 in Snow Light Snow
8:17 PM 19.4 °F 8.6 °F 14.0 °F 80% 30.18 in 2.0 mi South 9.2 mph - 0.00 in Snow Light Snow
8:38 PM 19.4 °F 11.5 °F 14.0 °F 80% 30.17 in 4.0 mi SSE 5.8 mph - 0.00 in Snow Light Snow
8:53 PM 19.9 °F 11.1 °F 14.0 °F 78% 30.22 in 8.0 mi South 6.9 mph - 0.00 in Snow Light Snow
9:27 PM 19.4 °F 9.5 °F 12.2 °F 74% 30.18 in 4.0 mi South 8.1 mph - 0.00 in Snow Light Snow
9:34 PM 19.4 °F 8.6 °F 14.0 °F 80% 30.18 in 1.8 mi South 9.2 mph - 0.00 in Snow Light Snow
9:53 PM 19.9 °F 11.1 °F 15.1 °F 81% 30.22 in 1.0 mi South 6.9 mph - 0.00 in Snow Light Snow
10:00 PM 19.4 °F 10.4 °F 14.0 °F 80% 30.17 in 1.0 mi South 6.9 mph - 0.00 in Snow Light Snow
10:06 PM 19.4 °F 10.4 °F 14.0 °F 80% 30.17 in 2.5 mi South 6.9 mph - 0.00 in Snow Light Snow
10:13 PM 19.4 °F 10.4 °F 14.0 °F 80% 30.17 in 7.0 mi South 6.9 mph - 0.00 in Snow Light Snow
10:53 PM 19.9 °F 10.1 °F 12.9 °F 74% 30.22 in 7.0 mi South 8.1 mph - 0.00 in Snow Light Snow
11:53 PM 19.9 °F 11.1 °F 12.0 °F 71% 30.21 in 10.0 mi SSE 6.9 mph - 0.00 in   Overcast